This is the latest recevied weather packets stored in our database for station/object KA1JKB. If no packets are shown the sender has not sent any weather packets the latest 10 day(s).
| Time | Temp. | Humidity | Pressure | Rain* | Wind** | Luminosity | Snow |
|---|---|---|---|---|---|---|---|
| 1787923392 | 18.89° C | 81% | 1019.6 hPa | 0 mm | - | 379 W/m² | - |
| 1787923087 | 18.89° C | 82% | 1019.7 hPa | 0 mm | - | 379 W/m² | - |
| 1787922783 | 18.89° C | 83% | 1019.3 hPa | 0 mm | - | 357 W/m² | - |
| 1787922481 | 18.89° C | 83% | 1019.4 hPa | 0 mm | - | 331 W/m² | - |
| 1787922180 | 18.33° C | 87% | 1019.1 hPa | 0 mm | - | 299 W/m² | - |
| 1787921878 | 18.33° C | 89% | 1019.3 hPa | 0 mm | - | 384 W/m² | - |
| 1787921573 | 18.33° C | 93% | 1019.1 hPa | 0 mm | - | 553 W/m² | - |
| 1787921268 | 17.22° C | 97% | 1019.3 hPa | 0 mm | - | 1162 W/m² | - |
| 1787920964 | 16.67° C | 99% | 1019.1 hPa | 0 mm | - | 107 W/m² | - |
| 1787920659 | 16.67° C | 99% | 1019.3 hPa | 0 mm | - | 167 W/m² | - |
| 1787920358 | 16.67° C | 99% | 1019.2 hPa | 0 mm | - | 151 W/m² | - |
| 1787920056 | 16.67° C | 99% | 1019.2 hPa | 0 mm | - | 132 W/m² | - |
| 1787919755 | 15.56° C | 99% | 1019.3 hPa | 0 mm | - | 112 W/m² | - |
| 1787919454 | 15.56° C | 99% | 1019.2 hPa | 0 mm | - | 72 W/m² | - |
| 1787919150 | 15.56° C | 99% | 1019.2 hPa | 0 mm | - | 56 W/m² | - |
| 1787918850 | 15.56° C | 99% | 1019.1 hPa | 0 mm | - | 50 W/m² | - |
| 1787918545 | 14.44° C | 99% | 1019.1 hPa | 0 mm | - | 50 W/m² | - |
| 1787918243 | 13.89° C | 99% | 1018.9 hPa | 0 mm | - | 44 W/m² | - |
| 1787917938 | 13.33° C | 99% | 1019.1 hPa | 0 mm | - | 40 W/m² | - |
| 1787917633 | 12.78° C | 99% | 1018.9 hPa | 0 mm | - | 36 W/m² | - |
| 1787917330 | 11.11° C | 99% | 1019 hPa | 0 mm | - | 32 W/m² | - |
| 1787917029 | 9.44° C | 99% | 1018.9 hPa | 0 mm | - | 24 W/m² | - |
| 1787916725 | 8.89° C | 99% | 1018.8 hPa | 0 mm | - | 20 W/m² | - |
| 1787916419 | 8.33° C | 99% | 1018.4 hPa | 0 mm | - | 17 W/m² | - |
| 1787916116 | 8.33° C | 99% | 1018.6 hPa | 0 mm | - | 14 W/m² | - |
* Rain latest hour (hover to see other rain measurements)
** Current wind speed in m/s (hover to see current wind gust speed)